Weather Roundup
Issued by NWS Chicago, IL

Home | Current Version | Previous Version | Text Only | Print | Product List | Glossary On
Versions: 1 2 3 4 5 6 7 8 9 10 11 12 13 14 15 16 17 18 19 20 21 22 23 24 25 26 27 28 29 30 31 32 33 34 35 36 37 38 39 40 41 42 43 44 45 46 47 48 49 50
000
NZUS59 KLOT 240110
HRRLOT

CHICAGO AREA WEATHER ROUNDUP
NATIONAL WEATHER SERVICE CHICAGO/ROMEOVILLE IL
700 PM CST SUN NOV 23 2014

NOTE: "FAIR" INDICATES FEW OR NO CLOUDS BELOW 12,000 FEET WITH NO
SIGNIFICANT WEATHER AND/OR OBSTRUCTIONS TO VISIBILITY.

* THESE STATIONS ARE NOT UNDER NWS QUALITY CONTROL. THEY ALSO MAY NOT
  REPORT WEATHER SUCH AS PRECIPITATION OR FOG.

ILZ005-006-012>014-019>023-240200-
NORTHEAST ILLINOIS

CITY           SKY/WX    TMP DP  RH WIND       PRES   REMARKS
OHARE          LGT RAIN  50  49  96 E8        29.32F FOG
MIDWAY         RAIN      52  50  93 SE9G18    29.31F
AURORA         LGT RAIN  51  48  89 E8        29.30F FOG
LANSING*       RAIN      50  50  97 SE12      29.33F
JOLIET*        RAIN      49  49  97 SE8       29.30F
WAUKEGAN       LGT RAIN  46  45  96 SE9       29.32F FOG
DUPAGE AIRPORT RAIN      50  49  96 SE6       29.31F FOG
WHEELING       LGT RAIN  49  48  97 E6        29.34F FOG
KANKAKEE*      LGT RAIN  50  49  97 E10       29.30F
MORRIS*        LGT RAIN  50  50 100 E5        29.29F
LEWIS AIRPORT* RAIN      50  50 100 SE8       29.30F
NORTHERLY IS   NOT AVBL
$$

WIZ051-052-058>065-066-070>072-240200-
SOUTHEAST WISCONSIN

CITY           SKY/WX    TMP DP  RH WIND       PRES   REMARKS
MILWAUKEE      LGT RAIN  47  45  93 SE10      29.35F VSB 1
KENOSHA*       RAIN      48  47  96 SE8       29.34F FOG
RACINE*        LGT RAIN  47  45  93 SE9       29.36F FOG
BURLINGTON     LGT RAIN  45  45 100 E5        29.32F
WAUKESHA       LGT RAIN  45  45 100 SE7       29.36F FOG
WEST BEND      RAIN      45  43  93 SE3       29.36F
$$

INZ001>003-010>013-019-020-240200-
NORTHWEST INDIANA

CITY           SKY/WX    TMP DP  RH WIND       PRES   REMARKS
GARY*          LGT RAIN  52  50  93 SE14      29.33F
MICHIGAN CITY* NOT AVBL
RENSSELAER*    NOT AVBL
VALPARAISO     RAIN      50  50 100 E9        29.34F FOG
$$

LMZ740>746-240200-
SOUTHERN LAKE MICHIGAN

STATION/POSITION TIME  SKY/WX   TEMP WIND        PRES    VSBY
                                AIR  DIR/SP/G
                 (UTC)          (F)  (DEG/KT/KT) (MB)    (MI)
HARRISON CRIB    0100            47  110/ 15/ 15   N/A
BURNHAM HARBOR   0100            44   90/  3/  8   N/A
CALUMET HARBOR   0100            49  120/ 10/ 13  992.2F
BURNS HARBOR     NOT AVBL
MICHIGAN CITY    0100            52  120/ 11/ 15   N/A
$$

ABBREVIATIONS USED IN REMARKS
   TC - TEMPERATURE IN CELSIUS
  WCI - WIND CHILL INDEX
   HX - HEAT INDEX
  VSB - VISIBILITY
$$


USA.gov is the U.S. government's official web portal to all federal, state and local government web resources and services.